Погода в Индиан-Уэллсе

США     33°43′04″N   116°18′24″W
темп.,
°C
ветер,
м/с
пор.,
м/с
влажн.,
%
обл.,
%
осадки,
мм/ч
давл.,
гПа
погр.,
м
19 апреля, пн
пн1923:00+21ссз2370 0.0 101515
02:00+19ссз2270 0.0 101511
05:00+18ссз2270 0.0 101511
08:00+24сз1260 0.0 1016132
11:00+29зюз1140 0.0 10151491
14:00+32ююз0340 0.0 10122582
17:00+33ююв234100 0.0 10092867
20:00+24сз12120 0.0 101052
20 апреля, вт
вт2023:00+23сз33140 0.0 101129
02:00+21сз33120 0.0 101018
05:00+19зсз22150 0.0 100914
08:00+24сз11120 0.0 1011166
11:00+29юв2280 0.0 10101036
14:00+32юв5660 0.0 10062082
17:00+32зюз7660 0.0 10042186
20:00+24сз4614100 0.0 1005125
21 апреля, ср
ср2123:00+20сз46240 0.0 1006109
02:00+18сз343090 0.0 100557
05:00+15сз5745100 0.0 1006159
08:00+17сз663794 0.0 1007558
11:00+22ссз44210 0.0 10071204
14:00+26ссз761871 0.0 10061717
17:00+24сз97240 0.0 10051148
20:00+18сз79440 0.0 1006396
22 апреля, чт
чт2223:00+15сз69540 0.0 1008294
02:00+14зсз57540 0.0 1008195
05:00+14зсз45550 0.0 100899
08:00+17зсз34430 0.0 1010446
11:00+22з12290 0.0 10101111
14:00+27ююз232010 0.0 10071955
17:00+28зсз441821 0.0 10052327
20:00+21сз794171 0.0 1007280
23 апреля, пт
пт2323:00+18сз68500 0.0 1009203
02:00+17сз58500 0.0 1009165
05:00+16сз46500 0.0 101093
08:00+19сз23380 0.0 1011301
11:00+25юв32240 0.0 1011998
14:00+28юв44205 0.0 10101396
17:00+29юв331711 0.0 10081599
20:00+23сз68320 0.0 1009195